| time (UTC) | temp F | wind direction | speed knots | gust knots | rain 1hr in | rain 24hr in | rain mn in | humidity % | barometer mb |
| 20260906193106 | 81 | 136 | 7.8 | 13.0 | 0.00 | 0.00 | 0.00 | 83 | 1016.3 |
| 20260906192549 | 81 | 159 | 8.7 | 13.0 | 0.00 | 0.00 | 0.00 | 83 | 1016.2 |
| 20260906192050 | 81 | 153 | 7.8 | 13.0 | 0.00 | 0.00 | 0.00 | 83 | 1016.2 |
| 20260906191609 | 81 | 142 | 7.0 | 13.0 | 0.00 | 0.00 | 0.00 | 84 | 1016.1 |
| 20260906191053 | 81 | 144 | 7.8 | 12.2 | 0.00 | 0.00 | 0.00 | 84 | 1016.2 |
| 20260906190550 | 80 | 135 | 7.0 | 12.2 | 0.00 | 0.00 | 0.00 | 85 | 1016.1 |
| 20260906190108 | 80 | 140 | 6.1 | 12.2 | 0.00 | 0.00 | 0.00 | 86 | 1016.0 |
| 20260906185547 | 79 | 111 | 7.0 | 12.2 | 0.00 | 0.00 | 0.00 | 86 | 1016.0 |
| 20260906185050 | 79 | 81 | 7.0 | 12.2 | 0.00 | 0.00 | 0.00 | 87 | 1016.1 |
| 20260906184611 | 78 | 119 | 6.1 | 13.0 | 0.00 | 0.00 | 0.00 | 87 | 1016.0 |
| 20260906184047 | 78 | 135 | 7.8 | 13.0 | 0.00 | 0.00 | 0.00 | 87 | 1015.9 |
| 20260906183548 | 78 | 92 | 7.0 | 13.0 | 0.00 | 0.00 | 0.00 | 88 | 1016.0 |
| 20260906183105 | 77 | 119 | 6.1 | 12.2 | 0.00 | 0.00 | 0.00 | 88 | 1015.9 |
| 20260906182548 | 77 | 123 | 7.8 | 12.2 | 0.00 | 0.00 | 0.00 | 89 | 1016.0 |
| 20260906182048 | 77 | 122 | 4.3 | 8.7 | 0.00 | 0.00 | 0.00 | 89 | 1016.2 |
| 20260906181600 | 77 | 119 | 5.2 | 9.6 | 0.00 | 0.00 | 0.00 | 89 | 1016.3 |
| 20260906181047 | 76 | 111 | 5.2 | 9.6 | 0.00 | 0.00 | 0.00 | 90 | 1016.4 |
| 20260906180551 | 76 | 117 | 6.1 | 9.6 | 0.00 | 0.00 | 0.00 | 90 | 1016.5 |
| 20260906180101 | 76 | 126 | 5.2 | 10.4 | 0.00 | 0.00 | 0.00 | 90 | 1016.6 |
| 20260906175547 | 76 | 134 | 3.5 | 12.2 | 0.00 | 0.00 | 0.00 | 90 | 1016.8 |
| 20260906175046 | 76 | 125 | 5.2 | 12.2 | 0.00 | 0.00 | 0.00 | 90 | 1016.9 |
| 20260906174606 | 76 | 111 | 5.2 | 12.2 | 0.00 | 0.00 | 0.00 | 90 | 1017.0 |
| 20260906174048 | 76 | 115 | 5.2 | 8.7 | 0.00 | 0.00 | 0.00 | 90 | 1017.1 |
| 20260906173547 | 76 | 120 | 4.3 | 10.4 | 0.00 | 0.00 | 0.00 | 90 | 1017.1 |
| 20260906173103 | 75 | 150 | 6.1 | 10.4 | 0.00 | 0.00 | 0.00 | 90 | 1017.1 |
| 20260906172549 | 75 | 151 | 7.0 | 9.6 | 0.00 | 0.00 | 0.00 | 90 | 1017.1 |
| 20260906172050 | 76 | 142 | 6.1 | 10.4 | 0.00 | 0.00 | 0.00 | 90 | 1017.2 |
| 20260906171607 | 76 | 134 | 7.0 | 12.2 | 0.00 | 0.00 | 0.00 | 90 | 1017.1 |
| 20260906171048 | 76 | 126 | 7.0 | 12.2 | 0.00 | 0.00 | 0.00 | 90 | 1017.2 |
| 20260906170548 | 76 | 142 | 6.1 | 12.2 | 0.00 | 0.00 | 0.00 | 90 | 1017.0 |
| 20260906165548 | 75 | 117 | 6.1 | 10.4 | 0.00 | 0.00 | 0.00 | 90 | 1016.6 |
| 20260906165048 | 75 | 150 | 6.1 | 10.4 | 0.00 | 0.00 | 0.00 | 91 | 1016.5 |
| 20260906164602 | 75 | 125 | 6.1 | 10.4 | 0.00 | 0.00 | 0.00 | 91 | 1016.4 |
| 20260906164047 | 75 | 129 | 7.0 | 10.4 | 0.00 | 0.00 | 0.00 | 91 | 1016.7 |
| 20260906163547 | 75 | 139 | 6.1 | 9.6 | 0.00 | 0.00 | 0.00 | 91 | 1016.9 |
| 20260906163104 | 75 | 109 | 6.1 | 9.6 | 0.00 | 0.00 | 0.00 | 92 | 1016.9 |
| 20260906162552 | 75 | 126 | 5.2 | 9.6 | 0.00 | 0.00 | 0.00 | 92 | 1017.0 |
| 20260906162048 | 75 | 76 | 6.1 | 9.6 | 0.00 | 0.00 | 0.00 | 92 | 1016.9 |
| 20260906161604 | 75 | 90 | 5.2 | 10.4 | 0.00 | 0.00 | 0.00 | 93 | 1016.8 |
| 20260906161049 | 74 | 120 | 6.1 | 10.4 | 0.00 | 0.00 | 0.00 | 93 | 1016.8 |
| 20260906160550 | 74 | 98 | 4.3 | 10.4 | 0.00 | 0.00 | 0.00 | 93 | 1017.0 |
| 20260906160105 | 74 | 129 | 7.0 | 9.6 | 0.00 | 0.00 | 0.00 | 93 | 1017.0 |
| 20260906155549 | 74 | 109 | 5.2 | 9.6 | 0.00 | 0.00 | 0.00 | 94 | 1017.0 |
| 20260906155050 | 74 | 96 | 5.2 | 10.4 | 0.00 | 0.00 | 0.00 | 94 | 1016.8 |
| 20260906154607 | 74 | 134 | 6.1 | 10.4 | 0.00 | 0.00 | 0.00 | 94 | 1016.8 |
| 20260906154047 | 74 | 130 | 7.0 | 9.6 | 0.00 | 0.00 | 0.00 | 94 | 1016.7 |
| 20260906153550 | 74 | 123 | 6.1 | 8.7 | 0.00 | 0.00 | 0.00 | 94 | 1016.7 |
| 20260906153101 | 74 | 138 | 4.3 | 8.7 | 0.00 | 0.00 | 0.00 | 95 | 1016.8 |
| 20260906152552 | 74 | 112 | 6.1 | 8.7 | 0.00 | 0.00 | 0.00 | 95 | 1016.9 |
| 20260906152051 | 73 | 98 | 4.3 | 7.8 | 0.00 | 0.00 | 0.00 | 95 | 1016.8 |
| 20260906151603 | 73 | 113 | 5.2 | 7.8 | 0.00 | 0.00 | 0.00 | 95 | 1016.8 |
| 20260906151049 | 73 | 141 | 5.2 | 7.8 | 0.00 | 0.00 | 0.00 | 95 | 1016.8 |
| 20260906150549 | 73 | 126 | 4.3 | 8.7 | 0.00 | 0.00 | 0.00 | 95 | 1016.8 |
| 20260906150108 | 73 | 125 | 6.1 | 8.7 | 0.00 | 0.00 | 0.00 | 96 | 1016.6 |
| 20260906145549 | 73 | 107 | 4.3 | 8.7 | 0.00 | 0.00 | 0.00 | 96 | 1016.6 |
| 20260906145052 | 73 | 109 | 5.2 | 8.7 | 0.00 | 0.00 | 0.00 | 96 | 1016.5 |
| 20260906144622 | 73 | 130 | 6.1 | 8.7 | 0.00 | 0.00 | 0.00 | 96 | 1016.4 |
| 20260906144048 | 73 | 148 | 4.3 | 9.6 | 0.00 | 0.00 | 0.00 | 96 | 1016.2 |
| 20260906143549 | 72 | 128 | 5.2 | 9.6 | 0.00 | 0.00 | 0.00 | 96 | 1016.3 |
| 20260906143103 | 72 | 93 | 6.1 | 8.7 | 0.00 | 0.00 | 0.00 | 96 | 1016.4 |
| 20260906142549 | 72 | 121 | 5.2 | 10.4 | 0.00 | 0.00 | 0.00 | 96 | 1016.4 |
| 20260906142051 | 72 | 116 | 6.1 | 10.4 | 0.00 | 0.00 | 0.00 | 96 | 1016.5 |
| 20260906141630 | 72 | 161 | 4.3 | 8.7 | 0.00 | 0.00 | 0.00 | 96 | 1016.5 |
| 20260906141053 | 72 | 130 | 6.1 | 9.6 | 0.00 | 0.00 | 0.00 | 96 | 1016.4 |
| 20260906140549 | 72 | 122 | 5.2 | 9.6 | 0.00 | 0.00 | 0.00 | 96 | 1016.5 |
| 20260906140110 | 72 | 125 | 6.1 | 9.6 | 0.00 | 0.00 | 0.00 | 96 | 1016.6 |
| 20260906135550 | 72 | 99 | 4.3 | 9.6 | 0.00 | 0.00 | 0.00 | 96 | 1016.7 |
| 20260906135049 | 72 | 124 | 6.1 | 9.6 | 0.00 | 0.00 | 0.00 | 96 | 1016.7 |
| 20260906134606 | 72 | 119 | 4.3 | 8.7 | 0.00 | 0.00 | 0.00 | 96 | 1016.7 |
| 20260906134049 | 72 | 150 | 5.2 | 7.8 | 0.00 | 0.00 | 0.00 | 96 | 1016.8 |
| 20260906133548 | 72 | 117 | 4.3 | 7.8 | 0.00 | 0.00 | 0.00 | 96 | 1016.9 |
| 20260906133104 | 72 | 124 | 2.6 | 7.0 | 0.00 | 0.00 | 0.00 | 96 | 1017.0 |
| 20260906132553 | 72 | 116 | 2.6 | 7.0 | 0.00 | 0.00 | 0.00 | 96 | 1016.8 |
| 20260906132049 | 72 | 115 | 3.5 | 7.0 | 0.00 | 0.00 | 0.00 | 96 | 1016.9 |
| 20260906131603 | 72 | 140 | 3.5 | 7.0 | 0.00 | 0.00 | 0.00 | 95 | 1017.0 |
| 20260906131048 | 72 | 136 | 2.6 | 7.0 | 0.00 | 0.00 | 0.00 | 95 | 1017.1 |
| 20260906130550 | 72 | 156 | 2.6 | 7.0 | 0.00 | 0.00 | 0.00 | 95 | 1017.0 |
| 20260906130100 | 72 | 119 | 4.3 | 7.0 | 0.00 | 0.00 | 0.00 | 95 | 1016.9 |
| 20260906125550 | 72 | 136 | 4.3 | 7.0 | 0.00 | 0.00 | 0.00 | 95 | 1016.8 |
| 20260906125053 | 72 | 113 | 3.5 | 6.1 | 0.00 | 0.00 | 0.00 | 95 | 1016.8 |
| 20260906124604 | 72 | 126 | 2.6 | 6.1 | 0.00 | 0.00 | 0.00 | 95 | 1016.7 |
| 20260906124049 | 72 | 103 | 3.5 | 6.1 | 0.00 | 0.00 | 0.00 | 95 | 1016.6 |
| 20260906123550 | 72 | 125 | 1.7 | 5.2 | 0.00 | 0.00 | 0.00 | 95 | 1016.5 |
| 20260906123105 | 72 | 93 | 2.6 | 5.2 | 0.00 | 0.00 | 0.00 | 95 | 1016.6 |
| 20260906122548 | 71 | 88 | 2.6 | 6.1 | 0.00 | 0.00 | 0.00 | 95 | 1016.5 |
| 20260906122050 | 71 | 90 | 2.6 | 6.1 | 0.00 | 0.00 | 0.00 | 95 | 1016.4 |
| 20260906121606 | 71 | 109 | 2.6 | 6.1 | 0.00 | 0.00 | 0.00 | 95 | 1016.4 |
| 20260906121049 | 71 | 107 | 2.6 | 7.8 | 0.00 | 0.00 | 0.00 | 95 | 1016.3 |
| 20260906120550 | 71 | 121 | 2.6 | 7.8 | 0.00 | 0.00 | 0.00 | 95 | 1016.3 |
| 20260906120107 | 71 | 97 | 2.6 | 7.8 | 0.00 | 0.00 | 0.00 | 95 | 1016.2 |
| 20260906115549 | 71 | 127 | 2.6 | 7.8 | 0.00 | 0.00 | 0.00 | 95 | 1016.1 |
| 20260906115048 | 71 | 126 | 4.3 | 7.8 | 0.00 | 0.00 | 0.00 | 95 | 1016.0 |
| 20260906114604 | 71 | 124 | 3.5 | 7.8 | 0.00 | 0.00 | 0.00 | 95 | 1015.9 |
| 20260906114048 | 71 | 128 | 3.5 | 7.8 | 0.00 | 0.00 | 0.00 | 95 | 1016.1 |
| 20260906113545 | 71 | 122 | 3.5 | 8.7 | 0.00 | 0.00 | 0.00 | 95 | 1016.0 |
| 20260906113105 | 71 | 128 | 4.3 | 8.7 | 0.00 | 0.00 | 0.00 | 95 | 1016.1 |
| 20260906112546 | 71 | 139 | 4.3 | 7.8 | 0.00 | 0.00 | 0.00 | 95 | 1016.0 |
| 20260906112050 | 71 | 148 | 5.2 | 7.8 | 0.00 | 0.00 | 0.00 | 95 | 1016.0 |
| 20260906111604 | 71 | 104 | 3.5 | 7.0 | 0.00 | 0.00 | 0.00 | 95 | 1016.0 |
| 20260906111049 | 71 | 111 | 3.5 | 7.8 | 0.00 | 0.00 | 0.00 | 95 | 1016.0 |
| 20260906110550 | 71 | 116 | 5.2 | 7.8 | 0.00 | 0.00 | 0.00 | 95 | 1016.1 |
| 20260906110107 | 71 | 114 | 3.5 | 7.8 | 0.00 | 0.00 | 0.00 | 95 | 1016.3 |
| 20260906105551 | 71 | 136 | 4.3 | 7.8 | 0.00 | 0.00 | 0.00 | 95 | 1016.3 |
| 20260906105050 | 71 | 96 | 4.3 | 7.8 | 0.00 | 0.00 | 0.00 | 95 | 1016.2 |
| 20260906104628 | 71 | 152 | 5.2 | 7.8 | 0.00 | 0.00 | 0.00 | 94 | 1016.2 |
| 20260906104050 | 71 | 130 | 3.5 | 8.7 | 0.00 | 0.00 | 0.00 | 94 | 1016.2 |
| 20260906103548 | 71 | 108 | 3.5 | 8.7 | 0.00 | 0.00 | 0.00 | 94 | 1016.1 |
| 20260906103115 | 71 | 120 | 3.5 | 8.7 | 0.00 | 0.00 | 0.00 | 94 | 1016.2 |
| 20260906102549 | 71 | 119 | 4.3 | 7.8 | 0.00 | 0.00 | 0.00 | 94 | 1016.2 |
| 20260906102046 | 72 | 116 | 4.3 | 7.0 | 0.00 | 0.00 | 0.00 | 94 | 1016.2 |
| 20260906101603 | 72 | 130 | 3.5 | 9.6 | 0.00 | 0.00 | 0.00 | 94 | 1016.3 |
| 20260906101049 | 72 | 122 | 5.2 | 9.6 | 0.00 | 0.00 | 0.00 | 94 | 1016.3 |
| 20260906100546 | 72 | 111 | 5.2 | 8.7 | 0.00 | 0.00 | 0.00 | 94 | 1016.4 |
| 20260906100104 | 72 | 120 | 4.3 | 8.7 | 0.00 | 0.00 | 0.00 | 94 | 1016.4 |
| 20260906095549 | 72 | 111 | 4.3 | 8.7 | 0.00 | 0.00 | 0.00 | 94 | 1016.3 |
| 20260906095049 | 72 | 150 | 5.2 | 8.7 | 0.00 | 0.00 | 0.00 | 94 | 1016.4 |
| 20260906094641 | 72 | 120 | 5.2 | 8.7 | 0.00 | 0.00 | 0.00 | 94 | 1016.4 |
| 20260906094048 | 72 | 142 | 2.6 | 8.7 | 0.00 | 0.00 | 0.00 | 93 | 1016.4 |
| 20260906093550 | 72 | 144 | 4.3 | 8.7 | 0.00 | 0.00 | 0.00 | 93 | 1016.2 |
| 20260906093109 | 72 | 147 | 5.2 | 8.7 | 0.00 | 0.00 | 0.00 | 93 | 1016.2 |
| 20260906092550 | 72 | 125 | 4.3 | 8.7 | 0.00 | 0.00 | 0.00 | 93 | 1016.2 |
| 20260906092048 | 72 | 151 | 5.2 | 8.7 | 0.00 | 0.00 | 0.00 | 93 | 1016.2 |
| 20260906091613 | 72 | 134 | 4.3 | 8.7 | 0.00 | 0.00 | 0.00 | 93 | 1016.0 |
| 20260906091048 | 72 | 119 | 4.3 | 7.8 | 0.00 | 0.00 | 0.00 | 93 | 1016.0 |
| 20260906090548 | 72 | 139 | 3.5 | 7.8 | 0.00 | 0.00 | 0.00 | 93 | 1016.1 |
| 20260906090100 | 72 | 146 | 4.3 | 7.8 | 0.00 | 0.00 | 0.00 | 93 | 1016.2 |
| 20260906085548 | 72 | 151 | 5.2 | 7.8 | 0.00 | 0.00 | 0.00 | 93 | 1016.0 |
| 20260906085046 | 72 | 132 | 5.2 | 7.8 | 0.00 | 0.00 | 0.00 | 93 | 1016.2 |
| 20260906084601 | 72 | 142 | 5.2 | 7.8 | 0.00 | 0.00 | 0.00 | 93 | 1016.1 |
| 20260906084049 | 72 | 110 | 4.3 | 7.8 | 0.00 | 0.00 | 0.00 | 93 | 1016.0 |
| 20260906083549 | 72 | 108 | 3.5 | 9.6 | 0.00 | 0.00 | 0.00 | 93 | 1016.1 |
| 20260906083059 | 72 | 140 | 5.2 | 10.4 | 0.00 | 0.00 | 0.00 | 93 | 1016.1 |
| 20260906082550 | 72 | 130 | 5.2 | 10.4 | 0.00 | 0.00 | 0.00 | 93 | 1016.0 |
| 20260906082049 | 72 | 111 | 6.1 | 10.4 | 0.00 | 0.00 | 0.00 | 93 | 1015.9 |
| 20260906081600 | 72 | 86 | 4.3 | 9.6 | 0.00 | 0.00 | 0.00 | 93 | 1015.8 |
| 20260906081048 | 72 | 129 | 6.1 | 9.6 | 0.00 | 0.00 | 0.00 | 93 | 1015.8 |
| 20260906080549 | 72 | 111 | 5.2 | 10.4 | 0.00 | 0.00 | 0.00 | 93 | 1015.9 |
| 20260906075549 | 73 | 107 | 7.0 | 11.3 | 0.00 | 0.00 | 0.00 | 93 | 1015.9 |
| 20260906075049 | 73 | 127 | 6.1 | 11.3 | 0.00 | 0.00 | 0.00 | 93 | 1015.8 |
| 20260906074604 | 73 | 120 | 7.0 | 11.3 | 0.00 | 0.00 | 0.00 | 93 | 1015.7 |
| 20260906074048 | 73 | 111 | 6.1 | 11.3 | 0.00 | 0.00 | 0.00 | 93 | 1015.7 |
| 20260906073549 | 73 | 121 | 6.1 | 11.3 | 0.00 | 0.00 | 0.00 | 93 | 1015.6 |
| 20260906073100 | 73 | 140 | 7.0 | 11.3 | 0.00 | 0.00 | 0.00 | 93 | 1015.7 |
| 20260906072550 | 73 | 111 | 6.1 | 10.4 | 0.00 | 0.00 | 0.00 | 93 | 1015.7 |
| 20260906072049 | 73 | 142 | 6.1 | 10.4 | 0.00 | 0.00 | 0.00 | 93 | 1015.7 |
| 20260906071559 | 73 | 143 | 6.1 | 10.4 | 0.00 | 0.00 | 0.00 | 93 | 1015.9 |
| 20260906071052 | 73 | 105 | 5.2 | 10.4 | 0.00 | 0.00 | 0.00 | 94 | 1015.9 |
| 20260906070548 | 73 | 93 | 4.3 | 10.4 | 0.00 | 0.00 | 0.00 | 94 | 1015.9 |
| 20260906070101 | 73 | 107 | 4.3 | 10.4 | 0.00 | 0.00 | 0.00 | 94 | 1015.9 |
| 20260906065548 | 73 | 109 | 6.1 | 8.7 | 0.00 | 0.00 | 0.00 | 94 | 1016.0 |
| 20260906065049 | 73 | 90 | 6.1 | 11.3 | 0.00 | 0.00 | 0.00 | 94 | 1015.9 |
| 20260906064602 | 73 | 106 | 7.8 | 12.2 | 0.00 | 0.00 | 0.00 | 94 | 1015.9 |
| 20260906064049 | 73 | 78 | 7.0 | 12.2 | 0.00 | 0.00 | 0.00 | 94 | 1015.8 |
| 20260906063548 | 73 | 93 | 6.1 | 10.4 | 0.00 | 0.00 | 0.00 | 94 | 1015.9 |
| 20260906063100 | 73 | 92 | 5.2 | 10.4 | 0.00 | 0.00 | 0.00 | 94 | 1016.0 |
| 20260906062548 | 73 | 109 | 6.1 | 9.6 | 0.00 | 0.00 | 0.00 | 94 | 1015.9 |
| 20260906062051 | 73 | 121 | 4.3 | 7.8 | 0.00 | 0.00 | 0.00 | 93 | 1016.0 |
| 20260906061602 | 73 | 114 | 4.3 | 7.8 | 0.00 | 0.00 | 0.00 | 93 | 1015.9 |
| 20260906061049 | 73 | 119 | 5.2 | 7.8 | 0.00 | 0.00 | 0.00 | 93 | 1016.1 |
| 20260906060552 | 73 | 113 | 3.5 | 7.8 | 0.00 | 0.00 | 0.00 | 93 | 1016.2 |
| 20260906060104 | 73 | 106 | 5.2 | 7.0 | 0.00 | 0.00 | 0.00 | 93 | 1016.2 |
| 20260906055551 | 73 | 112 | 3.5 | 7.0 | 0.00 | 0.00 | 0.00 | 93 | 1016.2 |
| 20260906055048 | 73 | 105 | 3.5 | 7.0 | 0.00 | 0.00 | 0.00 | 93 | 1016.4 |
| 20260906054604 | 73 | 121 | 3.5 | 7.8 | 0.00 | 0.00 | 0.00 | 93 | 1016.4 |
| 20260906054049 | 73 | 82 | 3.5 | 7.8 | 0.00 | 0.00 | 0.00 | 93 | 1016.4 |
| 20260906053548 | 73 | 107 | 3.5 | 7.8 | 0.00 | 0.00 | 0.00 | 93 | 1016.3 |
| 20260906053107 | 73 | 97 | 2.6 | 7.8 | 0.00 | 0.00 | 0.00 | 93 | 1016.2 |
| 20260906052550 | 73 | 119 | 3.5 | 8.7 | 0.00 | 0.00 | 0.00 | 92 | 1016.4 |
| 20260906052049 | 73 | 109 | 4.3 | 8.7 | 0.00 | 0.00 | 0.00 | 92 | 1016.2 |
| 20260906051600 | 74 | 107 | 4.3 | 8.7 | 0.00 | 0.00 | 0.00 | 92 | 1016.2 |
| 20260906051051 | 73 | 105 | 4.3 | 8.7 | 0.00 | 0.00 | 0.00 | 92 | 1016.2 |
| 20260906050548 | 74 | 121 | 4.3 | 8.7 | 0.00 | 0.00 | 0.00 | 92 | 1016.3 |
| 20260906050125 | 74 | 101 | 3.5 | 7.8 | 0.00 | 0.00 | 0.00 | 92 | 1016.3 |
| 20260906045548 | 74 | 104 | 4.3 | 7.8 | 0.00 | 0.00 | 0.00 | 92 | 1016.3 |
| 20260906045047 | 74 | 110 | 3.5 | 7.8 | 0.00 | 0.00 | 0.00 | 92 | 1016.4 |
| 20260906044601 | 74 | 111 | 3.5 | 7.8 | 0.00 | 0.00 | 0.00 | 92 | 1016.4 |
| 20260906044049 | 74 | 104 | 4.3 | 7.8 | 0.00 | 0.00 | 0.00 | 91 | 1016.4 |
| 20260906043547 | 74 | 123 | 4.3 | 7.8 | 0.00 | 0.00 | 0.00 | 91 | 1016.3 |
| 20260906043059 | 74 | 75 | 3.5 | 7.8 | 0.00 | 0.00 | 0.00 | 91 | 1016.4 |
| 20260906042547 | 74 | 111 | 4.3 | 8.7 | 0.00 | 0.00 | 0.00 | 91 | 1016.4 |
| 20260906042046 | 74 | 122 | 4.3 | 8.7 | 0.00 | 0.00 | 0.00 | 91 | 1016.3 |
| 20260906041600 | 74 | 100 | 6.1 | 10.4 | 0.00 | 0.00 | 0.00 | 91 | 1016.3 |
| 20260906041046 | 74 | 97 | 6.1 | 10.4 | 0.00 | 0.00 | 0.00 | 91 | 1016.1 |
| 20260906040549 | 74 | 117 | 7.0 | 10.4 | 0.00 | 0.00 | 0.00 | 91 | 1015.9 |
| 20260906040139 | 74 | 96 | 6.1 | 10.4 | 0.00 | 0.00 | 0.00 | 90 | 1015.6 |
| 20260906035550 | 74 | 94 | 6.1 | 10.4 | 0.00 | 0.00 | 0.00 | 90 | 1015.8 |
| 20260906035048 | 74 | 89 | 6.1 | 9.6 | 0.00 | 0.00 | 0.00 | 90 | 1015.9 |
| 20260906034607 | 74 | 94 | 6.1 | 9.6 | 0.00 | 0.00 | 0.00 | 90 | 1015.9 |
| 20260906034046 | 74 | 95 | 4.3 | 7.8 | 0.00 | 0.00 | 0.00 | 89 | 1016.0 |
| 20260906033546 | 74 | 96 | 3.5 | 7.0 | 0.00 | 0.00 | 0.00 | 89 | 1016.0 |
| 20260906033101 | 75 | 126 | 3.5 | 7.8 | 0.00 | 0.00 | 0.00 | 89 | 1016.1 |
| 20260906032548 | 75 | 123 | 3.5 | 7.8 | 0.00 | 0.00 | 0.00 | 89 | 1016.1 |
| 20260906032048 | 75 | 102 | 2.6 | 7.8 | 0.00 | 0.00 | 0.00 | 89 | 1016.0 |
| 20260906031606 | 75 | 117 | 3.5 | 7.8 | 0.00 | 0.00 | 0.00 | 89 | 1016.0 |
| 20260906031051 | 75 | 104 | 2.6 | 7.8 | 0.00 | 0.00 | 0.00 | 88 | 1015.9 |
| 20260906030547 | 75 | 116 | 3.5 | 8.7 | 0.00 | 0.00 | 0.00 | 88 | 1015.7 |
| 20260906030109 | 75 | 123 | 4.3 | 8.7 | 0.00 | 0.00 | 0.00 | 88 | 1015.6 |
| 20260906025546 | 75 | 112 | 5.2 | 9.6 | 0.00 | 0.00 | 0.00 | 88 | 1015.4 |
| 20260906025047 | 75 | 126 | 5.2 | 9.6 | 0.00 | 0.00 | 0.00 | 87 | 1015.4 |
| 20260906024608 | 75 | 129 | 5.2 | 9.6 | 0.00 | 0.00 | 0.00 | 87 | 1015.5 |
| 20260906024049 | 75 | 111 | 6.1 | 9.6 | 0.00 | 0.00 | 0.00 | 87 | 1015.2 |
| 20260906023551 | 75 | 134 | 5.2 | 9.6 | 0.00 | 0.00 | 0.00 | 87 | 1015.4 |
| 20260906023102 | 75 | 107 | 5.2 | 8.7 | 0.00 | 0.00 | 0.00 | 87 | 1015.3 |
| 20260906022547 | 75 | 99 | 5.2 | 8.7 | 0.00 | 0.00 | 0.00 | 86 | 1015.3 |
| 20260906022050 | 75 | 88 | 5.2 | 8.7 | 0.00 | 0.00 | 0.00 | 86 | 1015.2 |
| 20260906021609 | 75 | 105 | 4.3 | 8.7 | 0.00 | 0.00 | 0.00 | 85 | 1015.2 |
| 20260906021049 | 76 | 103 | 4.3 | 7.8 | 0.00 | 0.00 | 0.00 | 85 | 1015.2 |
| 20260906020546 | 76 | 113 | 5.2 | 7.8 | 0.00 | 0.00 | 0.00 | 84 | 1015.2 |
| 20260906020107 | 76 | 80 | 4.3 | 7.0 | 0.00 | 0.00 | 0.00 | 84 | 1014.9 |
| 20260906015546 | 76 | 100 | 3.5 | 7.0 | 0.00 | 0.00 | 0.00 | 83 | 1015.1 |
| 20260906015047 | 76 | 138 | 3.5 | 7.0 | 0.00 | 0.00 | 0.00 | 83 | 1015.0 |
| 20260906014610 | 76 | 114 | 3.5 | 7.8 | 0.00 | 0.00 | 0.00 | 82 | 1015.0 |
| 20260906014048 | 77 | 109 | 4.3 | 7.8 | 0.00 | 0.00 | 0.00 | 81 | 1015.1 |
| 20260906013546 | 77 | 134 | 4.3 | 7.8 | 0.00 | 0.00 | 0.00 | 81 | 1015.0 |
| 20260906013103 | 77 | 105 | 3.5 | 7.8 | 0.00 | 0.00 | 0.00 | 80 | 1014.9 |
| 20260906012550 | 77 | 129 | 4.3 | 8.7 | 0.00 | 0.00 | 0.00 | 80 | 1014.9 |
| 20260906012047 | 78 | 112 | 5.2 | 8.7 | 0.00 | 0.00 | 0.00 | 79 | 1014.9 |
| 20260906011604 | 78 | 99 | 4.3 | 7.8 | 0.00 | 0.00 | 0.00 | 79 | 1014.7 |
| 20260906011051 | 78 | 113 | 4.3 | 7.8 | 0.00 | 0.00 | 0.00 | 78 | 1015.0 |
| 20260906010547 | 78 | 94 | 3.5 | 8.7 | 0.00 | 0.00 | 0.00 | 77 | 1014.9 |
| 20260906010109 | 79 | 121 | 4.3 | 8.7 | 0.00 | 0.00 | 0.00 | 76 | 1014.9 |
| 20260906005547 | 79 | 116 | 5.2 | 8.7 | 0.00 | 0.00 | 0.00 | 76 | 1014.9 |
| 20260906005048 | 79 | 117 | 5.2 | 11.3 | 0.00 | 0.00 | 0.00 | 76 | 1014.8 |
| 20260906004608 | 80 | 95 | 5.2 | 11.3 | 0.00 | 0.00 | 0.00 | 75 | 1014.9 |
| 20260906004046 | 80 | 113 | 4.3 | 10.4 | 0.00 | 0.00 | 0.00 | 75 | 1014.9 |
| 20260906003546 | 80 | 114 | 3.5 | 8.7 | 0.00 | 0.00 | 0.00 | 74 | 1014.8 |
| 20260906003105 | 80 | 120 | 4.3 | 9.6 | 0.00 | 0.00 | 0.00 | 74 | 1014.8 |
| 20260906002546 | 81 | 122 | 6.1 | 10.4 | 0.00 | 0.00 | 0.00 | 74 | 1014.7 |
| 20260906002052 | 81 | 101 | 6.1 | 10.4 | 0.00 | 0.00 | 0.00 | 74 | 1014.5 |
| 20260906001615 | 81 | 97 | 6.1 | 10.4 | 0.00 | 0.00 | 0.00 | 73 | 1014.5 |
| 20260906001047 | 81 | 109 | 4.3 | 10.4 | 0.00 | 0.00 | 0.00 | 72 | 1014.4 |
| 20260906000549 | 82 | 94 | 7.8 | 13.0 | 0.00 | 0.00 | 0.00 | 71 | 1014.3 |
| 20260905235546 | 82 | 109 | 7.8 | 13.0 | 0.00 | 0.00 | 0.00 | 70 | 1014.2 |
| 20260905235046 | 82 | 103 | 6.1 | 13.0 | 0.00 | 0.00 | 0.00 | 69 | 1014.0 |
| 20260905234602 | 82 | 140 | 9.6 | 14.8 | 0.00 | 0.00 | 0.00 | 69 | 1014.2 |
| 20260905234047 | 83 | 118 | 8.7 | 16.5 | 0.00 | 0.00 | 0.00 | 68 | 1014.2 |
| 20260905233548 | 83 | 127 | 9.6 | 16.5 | 0.00 | 0.00 | 0.00 | 67 | 1014.2 |
| 20260905233112 | 83 | 120 | 7.0 | 13.9 | 0.00 | 0.00 | 0.00 | 68 | 1014.2 |
| 20260905232547 | 83 | 103 | 7.0 | 13.9 | 0.00 | 0.00 | 0.00 | 69 | 1014.1 |
| 20260905232047 | 84 | 141 | 9.6 | 13.9 | 0.00 | 0.00 | 0.00 | 70 | 1014.2 |
| 20260905231603 | 84 | 105 | 8.7 | 12.2 | 0.00 | 0.00 | 0.00 | 69 | 1014.1 |
| 20260905231050 | 84 | 121 | 8.7 | 13.9 | 0.00 | 0.00 | 0.00 | 67 | 1014.2 |
| 20260905230546 | 84 | 137 | 8.7 | 13.9 | 0.00 | 0.00 | 0.00 | 68 | 1014.2 |
| 20260905230115 | 85 | 93 | 7.0 | 13.9 | 0.00 | 0.00 | 0.00 | 69 | 1014.1 |
| 20260905225547 | 85 | 132 | 7.0 | 14.8 | 0.00 | 0.00 | 0.00 | 68 | 1014.0 |
| 20260905225047 | 85 | 119 | 9.6 | 14.8 | 0.00 | 0.00 | 0.00 | 66 | 1014.1 |
| 20260905224610 | 85 | 107 | 7.0 | 14.8 | 0.00 | 0.00 | 0.00 | 64 | 1014.1 |
| 20260905224046 | 85 | 115 | 8.7 | 14.8 | 0.00 | 0.00 | 0.00 | 64 | 1014.1 |
| 20260905223547 | 85 | 113 | 8.7 | 13.9 | 0.00 | 0.00 | 0.00 | 65 | 1014.1 |
| 20260905223106 | 85 | 108 | 8.7 | 14.8 | 0.00 | 0.00 | 0.00 | 65 | 1014.0 |
| 20260905222548 | 85 | 86 | 8.7 | 14.8 | 0.00 | 0.00 | 0.00 | 64 | 1013.8 |
| 20260905222046 | 86 | 88 | 5.2 | 13.0 | 0.00 | 0.00 | 0.00 | 65 | 1013.8 |
| 20260905221606 | 86 | 138 | 8.7 | 13.9 | 0.00 | 0.00 | 0.00 | 63 | 1013.8 |
| 20260905221046 | 86 | 111 | 8.7 | 13.9 | 0.00 | 0.00 | 0.00 | 63 | 1013.8 |
| 20260905220549 | 86 | 119 | 8.7 | 13.9 | 0.00 | 0.00 | 0.00 | 62 | 1013.8 |
| 20260905220106 | 86 | 115 | 8.7 | 13.0 | 0.00 | 0.00 | 0.00 | 62 | 1013.9 |
| 20260905215547 | 86 | 96 | 7.8 | 13.0 | 0.00 | 0.00 | 0.00 | 61 | 1013.9 |
| 20260905215045 | 86 | 134 | 7.0 | 13.0 | 0.00 | 0.00 | 0.00 | 62 | 1013.9 |
| 20260905214606 | 86 | 92 | 8.7 | 13.0 | 0.00 | 0.00 | 0.00 | 61 | 1014.0 |
| 20260905214047 | 86 | 84 | 8.7 | 13.0 | 0.00 | 0.00 | 0.00 | 61 | 1014.2 |
| 20260905213547 | 86 | 132 | 7.8 | 12.2 | 0.00 | 0.00 | 0.00 | 61 | 1014.2 |
| 20260905213109 | 86 | 92 | 6.1 | 12.2 | 0.00 | 0.00 | 0.00 | 61 | 1014.2 |
| 20260905212551 | 86 | 112 | 7.8 | 12.2 | 0.00 | 0.00 | 0.00 | 61 | 1014.2 |
| 20260905212051 | 86 | 105 | 7.0 | 12.2 | 0.00 | 0.00 | 0.00 | 61 | 1014.3 |
| 20260905211558 | 87 | 108 | 6.1 | 11.3 | 0.00 | 0.00 | 0.00 | 61 | 1014.2 |
| 20260905211051 | 86 | 94 | 5.2 | 11.3 | 0.00 | 0.00 | 0.00 | 62 | 1014.3 |
| 20260905210551 | 86 | 114 | 6.1 | 12.2 | 0.00 | 0.00 | 0.00 | 62 | 1014.4 |
| 20260905210116 | 86 | 90 | 7.0 | 12.2 | 0.00 | 0.00 | 0.00 | 62 | 1014.3 |
| 20260905205550 | 87 | 73 | 5.2 | 12.2 | 0.00 | 0.00 | 0.00 | 62 | 1014.2 |
| 20260905205051 | 86 | 62 | 7.0 | 12.2 | 0.00 | 0.00 | 0.00 | 62 | 1014.2 |
| 20260905204605 | 86 | 74 | 7.0 | 13.0 | 0.00 | 0.00 | 0.00 | 61 | 1014.1 |
| 20260905204053 | 86 | 82 | 8.7 | 13.0 | 0.00 | 0.00 | 0.00 | 61 | 1014.3 |
| 20260905203549 | 87 | 92 | 8.7 | 15.6 | 0.00 | 0.00 | 0.00 | 60 | 1014.2 |
| 20260905203101 | 87 | 92 | 7.0 | 15.6 | 0.00 | 0.00 | 0.00 | 60 | 1014.3 |
| 20260905202549 | 87 | 63 | 7.0 | 11.3 | 0.00 | 0.00 | 0.00 | 60 | 1014.3 |
| 20260905202051 | 87 | 79 | 6.1 | 11.3 | 0.00 | 0.00 | 0.00 | 61 | 1014.3 |
| 20260905201608 | 87 | 77 | 7.0 | 11.3 | 0.00 | 0.00 | 0.00 | 60 | 1014.4 |
| 20260905201050 | 87 | 101 | 7.8 | 11.3 | 0.00 | 0.00 | 0.00 | 59 | 1014.5 |
| 20260905200551 | 87 | 115 | 7.8 | 12.2 | 0.00 | 0.00 | 0.00 | 58 | 1014.4 |
| 20260905200140 | 87 | 109 | 7.8 | 13.9 | 0.00 | 0.00 | 0.00 | 57 | 1014.3 |
| 20260905195550 | 87 | 119 | 6.1 | 13.9 | 0.00 | 0.00 | 0.00 | 57 | 1014.4 |
| 20260905195047 | 87 | 118 | 7.0 | 11.3 | 0.00 | 0.00 | 0.00 | 58 | 1014.3 |
| 20260905194614 | 86 | 120 | 7.0 | 11.3 | 0.00 | 0.00 | 0.00 | 58 | 1014.2 |
| 20260905194048 | 86 | 126 | 7.8 | 13.0 | 0.00 | 0.00 | 0.00 | 57 | 1014.4 |
| 20260905193548 | 86 | 123 | 7.8 | 13.0 | 0.00 | 0.00 | 0.00 | 58 | 1014.5 |